User: anonymous   Login
Location: Unspecified
(0.0000°N, 0.0000°E)
Time: 19:28:12
(UTC+00:00)
Language:

Cosmos 1544 - Orbit

View from above orbital plane
View from above orbital plane
View from above satellite
View from above satellite

Ground track
Ground track

The orbit data is extracted from the following two-line orbital elements,

1 14819U 84027A   18018.87295799 +.00000943 +00000-0 +34757-4 0  9994
2 14819 082.4840 170.9020 0014112 007.5491 352.5957 15.26426649848477
Epoch (UTC): 18 January 2018 20:57:03
Eccentricity: 0.0014112
inclination: 82.4840°
perigee height: 477 km
apogee height: 496 km
right ascension of ascending node: 170.9020°
argument of perigee: 7.5491°
revolutions per day: 15.26426649
mean anomaly at epoch: 352.5957°
orbit number at epoch: 84847

The dashed part of the orbit path shows where the satellite is in the earth's shadow,  

DLR